TimeMDT,TemperatureF,Dew PointF,Humidity,Sea Level PressureIn,VisibilityMPH,Wind Direction,Wind SpeedMPH,Gust SpeedMPH,PrecipitationIn,Events,Conditions,WindDirDegrees,DateUTC
12:53 AM,63.0,61.0,93,30.02,7.0,ESE,5.8,-,N/A,,Clear,120,2013-08-23 06:53:00
1:17 AM,62.6,60.8,94,30.14,5.0,SSE,6.9,-,N/A,,Scattered Clouds,150,2013-08-23 07:17:00
1:25 AM,62.6,60.8,94,30.13,5.0,SSE,6.9,-,N/A,,Mostly Cloudy,150,2013-08-23 07:25:00
1:53 AM,64.0,63.0,96,30.00,6.0,SSE,6.9,-,N/A,,Mostly Cloudy,150,2013-08-23 07:53:00
2:53 AM,66.0,64.0,93,29.98,6.0,South,6.9,-,N/A,,Overcast,180,2013-08-23 08:53:00
3:53 AM,64.9,63.0,93,29.96,5.0,SSE,8.1,-,N/A,,Mostly Cloudy,160,2013-08-23 09:53:00
4:00 AM,64.4,62.6,94,30.10,5.0,SSE,6.9,-,N/A,,Scattered Clouds,160,2013-08-23 10:00:00
4:49 AM,64.4,64.4,100,30.08,4.0,SSE,10.4,-,N/A,,Mostly Cloudy,150,2013-08-23 10:49:00
4:53 AM,64.9,64.0,97,29.95,4.0,SSE,10.4,-,N/A,,Mostly Cloudy,150,2013-08-23 10:53:00
5:38 AM,64.4,64.4,100,30.06,4.0,SSE,11.5,-,N/A,,Overcast,150,2013-08-23 11:38:00
5:53 AM,64.9,63.0,93,29.94,3.0,SSE,11.5,-,N/A,,Overcast,160,2013-08-23 11:53:00
6:26 AM,64.4,62.6,94,30.05,2.5,SE,11.5,-,N/A,,Overcast,140,2013-08-23 12:26:00
6:35 AM,64.4,62.6,94,30.05,3.0,SE,8.1,-,N/A,,Overcast,130,2013-08-23 12:35:00
6:53 AM,64.0,63.0,96,29.94,3.0,SE,9.2,-,N/A,,Mostly Cloudy,140,2013-08-23 12:53:00
7:53 AM,66.0,64.0,93,29.93,4.0,SE,10.4,-,N/A,,Overcast,140,2013-08-23 13:53:00
8:05 AM,66.2,64.4,94,30.04,5.0,SE,9.2,-,N/A,,Overcast,140,2013-08-23 14:05:00
8:53 AM,66.9,64.0,90,29.96,6.0,SSE,11.5,-,N/A,,Overcast,160,2013-08-23 14:53:00
9:42 AM,71.6,62.6,73,30.06,8.0,SSE,16.1,-,N/A,,Mostly Cloudy,160,2013-08-23 15:42:00
9:53 AM,70.0,63.0,78,29.95,9.0,South,16.1,20.7,N/A,,Mostly Cloudy,170,2013-08-23 15:53:00
10:19 AM,73.4,62.6,69,30.06,10.0,SSE,19.6,23.0,N/A,,Scattered Clouds,160,2013-08-23 16:19:00
10:53 AM,77.0,62.1,60,29.92,10.0,SSE,17.3,-,N/A,,Clear,160,2013-08-23 16:53:00
11:53 AM,82.9,60.1,46,29.91,10.0,South,18.4,24.2,N/A,,Clear,170,2013-08-23 17:53:00
12:53 PM,87.1,55.9,35,29.88,10.0,South,20.7,26.5,N/A,,Clear,170,2013-08-23 18:53:00
1:53 PM,89.1,55.9,32,29.83,10.0,South,16.1,25.3,N/A,,Clear,180,2013-08-23 19:53:00
2:53 PM,91.9,55.9,30,29.80,10.0,SSE,15.0,23.0,N/A,,Partly Cloudy,160,2013-08-23 20:53:00
3:53 PM,93.0,53.1,26,29.78,10.0,SSW,16.1,24.2,N/A,,Partly Cloudy,200,2013-08-23 21:53:00
4:53 PM,91.9,52.0,26,29.76,10.0,SSW,15.0,20.7,N/A,,Clear,210,2013-08-23 22:53:00
5:53 PM,89.1,54.0,30,29.76,10.0,South,9.2,-,N/A,,Clear,180,2013-08-23 23:53:00
6:53 PM,84.0,57.0,40,29.75,10.0,SE,19.6,28.8,N/A,,Partly Cloudy,140,2013-08-24 00:53:00
7:53 PM,81.0,57.9,45,29.77,10.0,SE,17.3,-,N/A,,Clear,140,2013-08-24 01:53:00
8:53 PM,78.1,60.1,54,29.80,10.0,SSE,16.1,-,N/A,,Clear,150,2013-08-24 02:53:00
9:53 PM,77.0,61.0,58,29.80,10.0,SSE,12.7,-,N/A,,Clear,160,2013-08-24 03:53:00
10:53 PM,75.9,62.1,62,29.78,10.0,SSE,16.1,-,N/A,,Clear,150,2013-08-24 04:53:00
11:53 PM,73.9,62.1,66,29.78,10.0,South,8.1,-,N/A,,Clear,170,2013-08-24 05:53:00